Date String (YYYY-MM-DD hh:mm:ss) UTC,Instrument flags,absolute air pressure of the measurement (hPa),sample flow rate (lpm),inlet stack bypass flow (lpm),air temperature of the measurement (°C),ambient temperature measured by the external sensor (°C),aerosol sample conditioner tube jacket temperature (°C),OPC LED temperature (°C),internal box temperature (°C),relative humidity of the measurement (%),span deviation,mass concentration of particles derived from Lorenz-Mie calculation of OPC scattering (μg/m³),mass concentration of particles derived from Lorenz-Mie calculation of OPC scattering (μg/m³),mass concentration of particles derived from Lorenz-Mie calculation of OPC scattering (μg/m³)
DateTimeUTC,F1_M11,P_M11,Q1_M11,Q2_M11,T1_M11,T2_M11,T3_M11,T4_M11,T5_M11,U1_M11,ZSPAN_M11,X0_M11,X2_M11,X1_M11
2023-12-06 14:00:00,SystemResetWarning,0833.8,5.00,000.00,023.5,022.5,000.0,031.9,024.8,13.4,0000.0,0001.37,0000.75,0000.58
2023-12-06 14:01:00,SystemResetWarning,0833.8,5.00,000.00,023.5,022.6,000.0,031.9,024.8,13.4,0000.0,0001.33,0000.74,0000.58
2023-12-06 14:02:00,SystemResetWarning,0833.8,5.00,000.00,023.5,022.6,000.0,031.9,024.8,13.4,0000.0,0001.35,0000.73,0000.57
2023-12-06 14:03:00,SystemResetWarning,0833.8,5.00,000.00,023.5,022.6,000.0,031.9,024.8,13.3,0000.0,0001.39,0000.74,0000.58
2023-12-06 14:04:00,SystemResetWarning,0833.8,5.00,000.00,023.5,022.6,000.0,031.9,024.8,13.2,0000.0,0001.42,0000.75,0000.58
2023-12-06 14:05:00,SystemResetWarning,0833.8,5.01,000.00,023.5,022.6,000.0,031.9,024.8,13.2,0000.0,0001.18,0000.73,0000.58
2023-12-06 14:06:00,SystemResetWarning,0833.8,5.01,000.00,023.5,022.6,000.0,031.9,024.8,13.2,0000.0,0001.03,0000.73,0000.58
2023-12-06 14:07:00,SystemResetWarning,0833.7,5.01,000.00,023.5,022.6,000.0,031.9,024.8,13.3,0000.0,0001.07,0000.75,0000.58
2023-12-06 14:08:00,SystemResetWarning,0833.7,4.99,000.00,023.5,022.6,000.0,031.9,024.8,13.2,0000.0,0001.05,0000.73,0000.57
2023-12-06 14:09:00,SystemResetWarning,0833.7,4.99,000.00,023.5,022.6,000.0,031.9,024.8,13.1,0000.0,0001.13,0000.75,0000.57
2023-12-06 14:10:00,SystemResetWarning,0833.7,4.99,000.00,023.5,022.5,000.0,031.9,024.8,12.7,0000.0,0001.13,0000.75,0000.57
2023-12-06 14:11:00,SystemResetWarning,0833.8,5.00,000.00,023.5,022.5,000.0,031.9,024.8,12.5,0000.0,0001.10,0000.74,0000.57
2023-12-06 14:12:00,SystemResetWarning,0833.7,5.00,000.00,023.5,022.5,000.0,031.9,024.8,12.5,0000.0,0001.09,0000.74,0000.57
2023-12-06 14:13:00,SystemResetWarning,0833.7,5.01,000.00,023.5,022.5,000.0,031.9,024.8,12.6,0000.0,0001.52,0000.71,0000.56
2023-12-06 14:14:00,SystemResetWarning,0833.7,5.00,000.00,023.5,022.5,000.0,031.8,024.8,12.9,0000.0,0002.30,0000.70,0000.55
2023-12-06 14:15:00,SystemResetWarning,0833.6,5.00,000.00,023.5,022.5,000.0,031.8,024.8,13.2,0000.0,0002.29,0000.68,0000.54
2023-12-06 14:16:00,SystemResetWarning,0833.6,4.99,000.00,023.5,022.5,000.0,031.8,024.8,13.3,0000.0,0002.25,0000.66,0000.53
2023-12-06 14:17:00,SystemResetWarning,0833.7,5.00,000.00,023.5,022.5,000.0,031.8,024.8,13.5,0000.0,0002.23,0000.65,0000.52
2023-12-06 14:18:00,SystemResetWarning,0833.7,5.00,000.00,023.5,022.6,000.0,031.8,024.8,13.6,0000.0,0002.30,0000.64,0000.52
2023-12-06 14:19:00,SystemResetWarning,0833.8,4.99,000.00,023.5,022.5,000.0,031.8,024.8,13.0,0000.0,0002.26,0000.62,0000.50
2023-12-06 14:20:00,SystemResetWarning,0833.8,5.00,000.00,023.5,022.5,000.0,031.8,024.7,12.1,0000.0,0002.14,0000.56,0000.49
2023-12-06 14:21:00,SystemResetWarning,0833.7,5.00,000.00,023.4,022.5,000.0,031.8,024.8,12.3,0000.0,0002.13,0000.54,0000.47
2023-12-06 14:22:00,SystemResetWarning,0833.6,5.00,000.00,023.4,022.5,000.0,031.8,024.8,12.7,0000.0,0002.12,0000.54,0000.46
2023-12-06 14:23:00,SystemResetWarning,0833.6,4.99,000.00,023.4,022.5,000.0,031.8,024.8,12.8,0000.0,0002.16,0000.53,0000.45
2023-12-06 14:24:00,SystemResetWarning,0833.7,5.01,000.00,023.5,022.5,000.0,031.8,024.8,13.0,0000.0,0001.82,0000.54,0000.45
2023-12-06 14:25:00,SystemResetWarning,0833.7,5.01,000.00,023.5,022.5,000.0,031.8,024.8,13.0,0000.0,0001.02,0000.54,0000.45
2023-12-06 14:26:00,SystemResetWarning,0833.7,5.01,000.00,023.5,022.5,000.0,031.8,024.8,12.7,0000.0,0001.03,0000.53,0000.46
2023-12-06 14:27:00,SystemResetWarning,0833.7,5.00,000.00,023.5,022.5,000.0,031.8,024.8,12.3,0000.0,0001.15,0000.57,0000.48
2023-12-06 14:28:00,SystemResetWarning,0833.7,5.00,000.00,023.4,022.5,000.0,031.8,024.8,12.5,0000.0,0001.17,0000.57,0000.48
2023-12-06 14:29:00,SystemResetWarning,0833.7,5.00,000.00,023.4,022.5,000.0,031.8,024.8,12.5,0000.0,0001.06,0000.56,0000.47
2023-12-06 14:30:00,SystemResetWarning,0833.7,4.99,000.00,023.4,022.5,000.0,031.8,024.8,12.7,0000.0,0001.04,0000.54,0000.45
2023-12-06 14:31:00,SystemResetWarning,0833.6,5.00,000.00,023.5,022.5,000.0,031.8,024.8,12.7,0000.0,0001.04,0000.54,0000.46
2023-12-06 14:32:00,SystemResetWarning,0833.6,5.01,000.00,023.5,022.5,000.0,031.8,024.8,12.6,0000.0,0001.05,0000.54,0000.46
2023-12-06 14:33:00,SystemResetWarning,0833.6,5.01,000.00,023.5,022.5,000.0,031.8,024.8,12.1,0000.0,0001.05,0000.54,0000.45
2023-12-06 14:34:00,SystemResetWarning,0833.6,5.00,000.00,023.4,022.5,000.0,031.8,024.8,12.0,0000.0,0001.11,0000.56,0000.45
2023-12-06 14:35:00,SystemResetWarning,0833.6,4.99,000.00,023.4,022.5,000.0,031.8,024.8,11.9,0000.0,0001.03,0000.55,0000.44
2023-12-06 14:36:00,SystemResetWarning,0833.5,4.99,000.00,023.4,022.5,000.0,031.8,024.8,11.7,0000.0,0000.99,0000.53,0000.42
2023-12-06 14:37:00,SystemResetWarning,0833.5,5.00,000.00,023.5,022.6,000.0,031.8,024.8,11.8,0000.0,0000.88,0000.50,0000.39
2023-12-06 14:38:00,SystemResetWarning,0833.5,5.00,000.00,023.5,022.6,000.0,031.8,024.8,11.9,0000.0,0000.74,0000.45,0000.35
2023-12-06 14:39:00,SystemResetWarning,0833.5,5.00,000.00,023.5,022.6,000.0,031.8,024.8,12.0,0000.0,0000.70,0000.43,0000.33
2023-12-06 14:40:00,SystemResetWarning,0833.6,5.01,000.00,023.5,022.6,000.0,031.8,024.8,11.8,0000.0,0000.72,0000.44,0000.33
2023-12-06 14:41:00,SystemResetWarning,0833.5,5.01,000.00,023.5,022.6,000.0,031.8,024.8,11.6,0000.0,0000.86,0000.46,0000.34
2023-12-06 14:42:00,SystemResetWarning,0833.5,5.00,000.00,023.5,022.6,000.0,031.8,024.8,11.6,0000.0,0000.90,0000.45,0000.33
2023-12-06 14:43:00,SystemResetWarning,0833.5,5.00,000.00,023.5,022.6,000.0,031.8,024.8,11.8,0000.0,0000.92,0000.46,0000.31
2023-12-06 14:44:00,SystemResetWarning,0833.5,5.00,000.00,023.5,022.6,000.0,031.8,024.8,12.1,0000.0,0000.91,0000.45,0000.30
2023-12-06 14:45:00,SystemResetWarning,0833.5,4.99,000.00,023.5,022.6,000.0,031.8,024.8,11.6,0000.0,0000.83,0000.42,0000.29
2023-12-06 14:46:00,SystemResetWarning,0833.5,5.00,000.00,023.5,022.6,000.0,031.8,024.8,11.6,0000.0,0000.73,0000.41,0000.28
2023-12-06 14:47:00,SystemResetWarning,0833.6,5.01,000.00,023.5,022.6,000.0,031.8,024.8,11.7,0000.0,0000.71,0000.40,0000.28
2023-12-06 14:48:00,SystemResetWarning,0833.5,5.00,000.00,023.5,022.6,000.0,031.8,024.8,11.6,0000.0,0000.73,0000.41,0000.28
2023-12-06 14:49:00,SystemResetWarning,0833.6,5.00,000.00,023.5,022.6,000.0,031.8,024.8,11.6,0000.0,0000.76,0000.42,0000.27
2023-12-06 14:50:00,SystemResetWarning,0833.6,5.01,000.00,023.5,022.6,000.0,031.8,024.8,11.7,0000.0,0000.76,0000.41,0000.27
2023-12-06 14:51:00,SystemResetWarning,0833.6,5.01,000.00,023.5,022.6,000.0,031.8,024.8,11.8,0000.0,0000.66,0000.36,0000.26
2023-12-06 14:52:00,SystemResetWarning,0833.6,4.99,000.00,023.5,022.6,000.0,031.8,024.9,11.9,0000.0,0000.56,0000.35,0000.25
2023-12-06 14:53:00,SystemResetWarning,0833.6,4.99,000.00,023.5,022.7,000.0,031.8,024.9,11.9,0000.0,0000.51,0000.34,0000.25
2023-12-06 14:54:00,SystemResetWarning,0833.5,4.99,000.00,023.5,022.7,000.0,031.8,024.9,11.8,0000.0,0000.48,0000.33,0000.25
2023-12-06 14:55:00,SystemResetWarning,0833.5,5.01,000.00,023.5,022.7,000.0,031.8,024.9,11.8,0000.0,0000.47,0000.33,0000.26
2023-12-06 14:56:00,SystemResetWarning,0833.5,5.00,000.00,023.5,022.7,000.0,031.8,024.9,11.5,0000.0,0000.47,0000.33,0000.26
2023-12-06 14:57:00,SystemResetWarning,0833.5,5.01,000.00,023.5,022.7,000.0,031.8,024.9,11.7,0000.0,0000.45,0000.32,0000.26
2023-12-06 14:58:00,SystemResetWarning,0833.5,5.00,000.00,023.5,022.7,000.0,031.8,024.9,11.9,0000.0,0000.45,0000.32,0000.26
2023-12-06 14:59:00,SystemResetWarning,0833.6,4.99,000.00,023.6,022.7,000.0,031.9,024.9,12.0,0000.0,0000.42,0000.30,0000.26
